Temp
-11 -12 -12 -13 -14 -15 -15 -16 -17 -18 -19 -20 -21 -21 -21 -22 -21 -20 -18 -16 -17 -18 -18 -18 -19 -19 -20 -19 -19 -20 -20 -20 -20 -19 -19 -19 -19 -19 -18 -18 -18 -17 -16 -15 -14 -13 -13 -12 -11 -11 -10 -10 -9 -9 -9 -8 -8 -8 -8 -8 -7 -6 -5 -4 -4 -3 -3 -1 1 0 -0 1 1 1
-12 -12 -12 -13 -14 -15 -16 -16 -17 -18 -19 -20 -20 -21 -21 -22 -22 -22 -20 -17 -17 -18 -18 -18 -19 -19 -19 -19 -19 -19 -19 -19 -19 -19 -19 -19 -19 -18 -18 -18 -18 -17 -16 -15 -14 -14 -13 -12 -12 -11 -10 -10 -9 -9 -9 -8 -8 -8 -8 -8 -7 -7 -5 -4 -4 -4 -3 -2 -0 -0 -1 0 1 1
-12 -12 -12 -13 -14 -15 -16 -16 -17 -18 -19 -20 -20 -21 -21 -22 -22 -22 -22 -18 -17 -18 -18 -18 -19 -19 -19 -20 -20 -19 -19 -19 -19 -19 -19 -19 -19 -18 -18 -18 -18 -17 -16 -15 -14 -14 -13 -13 -12 -11 -11 -10 -10 -9 -9 -9 -8 -8 -8 -8 -7 -7 -6 -4 -4 -3 -3 -2 -1 -1 -1 -0 1 1
-12 -12 -13 -13 -14 -15 -16 -16 -18 -18 -19 -19 -20 -21 -21 -21 -22 -22 -22 -20 -18 -18 -19 -18 -19 -20 -20 -20 -20 -19 -19 -19 -19 -19 -19 -18 -18 -18 -18 -18 -18 -17 -17 -16 -15 -14 -13 -13 -12 -12 -11 -10 -10 -9 -9 -9 -8 -8 -8 -8 -7 -7 -6 -5 -4 -3 -3 -3 -2 -1 -1 -1 0 1
-12 -12 -13 -14 -15 -15 -16 -17 -18 -18 -19 -19 -20 -21 -21 -21 -22 -22 -21 -20 -18 -17 -19 -19 -19 -20 -20 -19 -19 -19 -18 -18 -18 -18 -19 -18 -18 -18 -18 -18 -18 -17 -17 -16 -16 -15 -14 -13 -13 -12 -11 -11 -10 -10 -9 -9 -8 -8 -8 -8 -7 -7 -6 -5 -4 -3 -3 -3 -3 -2 -1 -1 -0 1
-12 -13 -13 -14 -15 -15 -16 -17 -18 -18 -19 -19 -20 -20 -21 -21 -22 -22 -21 -20 -18 -17 -18 -19 -19 -20 -20 -19 -19 -19 -18 -18 -18 -18 -18 -19 -19 -18 -18 -18 -18 -18 -17 -17 -16 -15 -14 -14 -13 -13 -12 -11 -11 -10 -9 -9 -9 -8 -8 -8 -7 -6 -6 -5 -4 -3 -2 -2 -3 -3 -2 -1 -0 0
-13 -13 -14 -14 -15 -15 -16 -17 -17 -18 -18 -19 -20 -20 -21 -21 -21 -21 -21 -20 -19 -18 -18 -19 -19 -19 -19 -19 -18 -19 -19 -18 -18 -18 -18 -19 -19 -18 -18 -18 -18 -18 -18 -17 -17 -16 -15 -14 -13 -13 -12 -11 -11 -10 -10 -9 -9 -9 -8 -8 -7 -6 -6 -5 -4 -3 -2 -2 -3 -3 -2 -2 -1 -0
-13 -13 -14 -14 -15 -16 -17 -17 -17 -18 -18 -19 -20 -20 -20 -21 -21 -21 -21 -20 -20 -19 -18 -18 -19 -19 -19 -19 -19 -19 -19 -18 -18 -18 -18 -18 -19 -19 -19 -18 -18 -18 -18 -18 -17 -16 -15 -14 -14 -13 -12 -12 -11 -11 -10 -9 -9 -9 -8 -8 -7 -6 -6 -5 -5 -4 -2 -1 -2 -3 -2 -2 -1 -1
-13 -13 -14 -14 -15 -16 -17 -17 -17 -18 -19 -19 -20 -20 -20 -21 -21 -21 -20 -20 -20 -19 -18 -18 -19 -19 -19 -19 -19 -19 -19 -18 -18 -18 -18 -19 -19 -19 -19 -18 -18 -18 -18 -18 -17 -17 -16 -15 -14 -13 -13 -12 -11 -11 -10 -9 -9 -9 -8 -8 -7 -7 -6 -5 -4 -4 -3 -2 -2 -2 -2 -2 -2 -1
-13 -13 -14 -14 -15 -16 -16 -17 -17 -18 -19 -19 -19 -20 -20 -21 -21 -20 -20 -20 -20 -19 -19 -19 -19 -19 -20 -20 -20 -20 -19 -19 -18 -18 -18 -19 -19 -19 -19 -19 -18 -18 -18 -18 -17 -17 -16 -15 -14 -14 -13 -12 -11 -11 -10 -9 -9 -9 -8 -8 -7 -7 -6 -5 -5 -5 -4 -2 -2 -2 -2 -2 -2 -1
-13 -13 -14 -15 -16 -16 -16 -17 -17 -18 -18 -19 -19 -20 -20 -20 -20 -20 -19 -19 -19 -19 -19 -19 -19 -20 -20 -20 -20 -19 -19 -19 -19 -18 -18 -18 -19 -19 -19 -19 -19 -18 -18 -18 -18 -17 -17 -16 -15 -14 -13 -13 -12 -11 -11 -10 -9 -9 -9 -8 -8 -7 -7 -6 -5 -5 -5 -3 -1 -2 -2 -3 -2 -2
-14 -14 -14 -15 -16 -16 -17 -17 -17 -18 -18 -19 -19 -19 -20 -20 -20 -19 -19 -19 -19 -19 -19 -19 -20 -20 -20 -20 -19 -19 -19 -19 -19 -19 -19 -18 -18 -18 -19 -19 -19 -19 -18 -18 -18 -18 -17 -16 -15 -14 -13 -13 -12 -11 -11 -10 -9 -9 -9 -8 -8 -7 -7 -6 -5 -5 -5 -3 -2 -1 -2 -3 -3 -2
-14 -14 -14 -15 -16 -16 -17 -17 -17 -18 -18 -19 -19 -19 -20 -20 -20 -19 -19 -19 -19 -19 -19 -19 -20 -20 -19 -19 -19 -19 -19 -19 -19 -19 -19 -19 -19 -18 -18 -18 -19 -19 -19 -18 -18 -18 -17 -16 -15 -14 -13 -13 -12 -11 -11 -10 -9 -9 -9 -8 -8 -7 -7 -6 -6 -5 -5 -4 -2 -1 -2 -2 -3 -3
-14 -14 -14 -15 -16 -16 -17 -17 -17 -18 -18 -19 -19 -19 -20 -20 -20 -19 -19 -19 -19 -19 -19 -19 -20 -19 -19 -19 -19 -19 -19 -19 -19 -18 -19 -19 -19 -19 -18 -18 -18 -19 -19 -18 -18 -18 -17 -17 -16 -14 -13 -13 -12 -11 -11 -10 -9 -9 -9 -8 -8 -7 -7 -6 -6 -5 -5 -4 -3 -2 -1 -2 -3 -3
-14 -14 -14 -15 -16 -16 -17 -17 -17 -18 -18 -19 -19 -20 -20 -20 -20 -20 -19 -19 -19 -19 -19 -19 -20 -19 -19 -19 -19 -19 -18 -18 -18 -18 -19 -19 -19 -19 -19 -18 -18 -19 -19 -19 -18 -17 -17 -17 -16 -14 -13 -13 -12 -11 -11 -10 -10 -9 -9 -8 -8 -7 -7 -7 -6 -5 -5 -4 -4 -3 -2 -2 -2 -3
-14 -14 -14 -15 -16 -16 -17 -17 -17 -18 -18 -19 -19 -20 -20 -20 -21 -21 -20 -20 -19 -19 -19 -19 -20 -19 -19 -19 -19 -19 -18 -18 -18 -18 -19 -19 -19 -19 -19 -18 -18 -18 -18 -18 -17 -17 -17 -17 -16 -14 -13 -13 -12 -11 -11 -10 -10 -9 -8 -8 -8 -8 -7 -7 -6 -6 -5 -4 -4 -4 -2 -2 -2 -3
-14 -14 -14 -15 -16 -16 -17 -17 -17 -18 -18 -19 -19 -20 -20 -20 -21 -21 -21 -21 -20 -20 -20 -20 -20 -20 -19 -19 -18 -19 -19 -18 -18 -18 -19 -19 -19 -19 -18 -18 -18 -18 -18 -18 -17 -17 -17 -17 -16 -14 -13 -13 -12 -11 -11 -10 -10 -9 -8 -8 -8 -8 -7 -7 -6 -6 -5 -4 -4 -4 -3 -2 -1 -2
-14 -14 -14 -15 -16 -16 -17 -17 -17 -17 -18 -18 -19 -20 -20 -20 -21 -21 -21 -21 -21 -21 -20 -20 -20 -20 -19 -18 -18 -18 -19 -19 -19 -18 -18 -19 -19 -18 -18 -18 -18 -18 -18 -18 -17 -16 -16 -17 -16 -14 -13 -13 -12 -11 -11 -10 -10 -9 -8 -8 -8 -7 -7 -7 -6 -6 -6 -5 -4 -4 -3 -2 -1 -1
-14 -14 -15 -15 -16 -16 -17 -17 -17 -17 -18 -18 -19 -19 -20 -20 -20 -20 -20 -21 -21 -21 -20 -20 -19 -19 -18 -18 -18 -18 -19 -19 -19 -19 -19 -19 -18 -18 -18 -19 -19 -19 -19 -18 -17 -16 -16 -17 -16 -14 -14 -13 -12 -11 -11 -10 -10 -9 -8 -8 -8 -7 -7 -7 -7 -6 -6 -5 -5 -4 -4 -3 -2 -1
-14 -14 -15 -16 -16 -16 -17 -17 -17 -17 -17 -18 -19 -19 -19 -20 -20 -20 -20 -20 -20 -20 -20 -20 -19 -18 -18 -18 -18 -19 -19 -19 -19 -18 -18 -19 -18 -18 -18 -19 -19 -19 -19 -18 -17 -15 -16 -17 -15 -14 -14 -13 -12 -11 -11 -10 -10 -9 -9 -8 -8 -7 -7 -7 -7 -7 -6 -6 -5 -4 -4 -4 -3 -2
-14 -14 -15 -16 -16 -16 -17 -17 -17 -17 -17 -18 -18 -19 -19 -19 -19 -20 -20 -20 -20 -20 -20 -19 -19 -18 -18 -19 -19 -19 -19 -19 -18 -18 -18 -18 -18 -18 -19 -19 -19 -20 -20 -19 -18 -16 -16 -17 -16 -14 -14 -13 -12 -11 -11 -10 -10 -9 -9 -8 -8 -8 -7 -7 -7 -7 -7 -6 -6 -5 -5 -4 -4 -3
-14 -15 -15 -16 -16 -16 -17 -17 -17 -17 -17 -18 -18 -19 -19 -19 -19 -19 -20 -20 -20 -20 -20 -19 -19 -19 -19 -19 -19 -19 -19 -19 -18 -18 -18 -18 -18 -18 -19 -19 -20 -20 -20 -20 -19 -17 -18 -18 -16 -15 -15 -13 -12 -11 -11 -10 -10 -9 -9 -8 -8 -8 -7 -7 -7 -7 -7 -6 -6 -5 -5 -5 -5 -5
-15 -15 -16 -16 -16 -16 -17 -17 -17 -17 -17 -18 -18 -18 -19 -19 -19 -19 -20 -20 -19 -19 -19 -19 -19 -19 -19 -19 -19 -19 -19 -18 -18 -18 -17 -17 -17 -18 -18 -19 -20 -20 -20 -20 -19 -19 -18 -18 -17 -16 -15 -13 -11 -11 -11 -10 -10 -9 -9 -8 -8 -8 -7 -7 -7 -7 -7 -7 -6 -6 -6 -6 -5 -5
-15 -15 -16 -16 -16 -16 -17 -17 -17 -17 -17 -18 -18 -19 -19 -19 -19 -19 -19 -19 -19 -19 -18 -18 -18 -19 -19 -19 -19 -19 -18 -18 -18 -17 -17 -17 -17 -17 -18 -19 -20 -21 -21 -20 -19 -19 -18 -18 -17 -16 -15 -13 -12 -12 -11 -10 -10 -9 -9 -9 -8 -8 -8 -8 -7 -7 -7 -7 -7 -7 -7 -6 -6 -6
-15 -15 -16 -16 -16 -16 -17 -17 -17 -17 -17 -18 -18 -19 -20 -20 -19 -19 -19 -19 -19 -18 -18 -18 -18 -19 -19 -19 -19 -19 -18 -18 -18 -18 -17 -16 -16 -17 -17 -18 -19 -20 -20 -20 -20 -19 -18 -18 -17 -16 -15 -14 -13 -12 -12 -11 -10 -9 -9 -9 -8 -8 -8 -8 -7 -7 -7 -7 -7 -7 -7 -7 -7 -6
-15 -16 -16 -16 -16 -16 -17 -17 -17 -17 -18 -18 -19 -20 -20 -20 -19 -19 -19 -19 -18 -18 -18 -18 -18 -19 -19 -19 -19 -19 -19 -18 -18 -17 -17 -16 -16 -17 -17 -17 -17 -18 -18 -19 -19 -19 -18 -18 -17 -16 -15 -14 -13 -13 -12 -11 -10 -10 -9 -9 -8 -8 -8 -8 -7 -7 -7 -7 -7 -7 -7 -7 -7 -6
-16 -16 -16 -16 -16 -17 -17 -17 -17 -18 -18 -19 -19 -19 -19 -19 -19 -19 -19 -18 -18 -18 -18 -19 -19 -19 -19 -18 -18 -18 -18 -18 -17 -17 -16 -16 -16 -16 -16 -16 -17 -17 -17 -17 -17 -17 -18 -17 -17 -16 -15 -14 -14 -13 -13 -12 -11 -10 -10 -9 -9 -8 -8 -8 -8 -7 -7 -7 -7 -7 -7 -7 -7 -7
-16 -16 -16 -16 -16 -17 -17 -18 -18 -18 -18 -19 -19 -19 -19 -19 -19 -19 -19 -19 -19 -19 -19 -19 -19 -18 -18 -18 -18 -18 -18 -18 -17 -16 -16 -15 -15 -16 -16 -16 -16 -16 -16 -16 -16 -16 -16 -16 -16 -16 -15 -14 -14 -14 -13 -12 -11 -10 -10 -9 -9 -8 -8 -8 -8 -7 -7 -7 -7 -7 -7 -7 -7 -7
-15 -15 -16 -16 -17 -17 -18 -18 -18 -18 -18 -18 -19 -19 -19 -19 -19 -20 -20 -19 -19 -19 -19 -19 -19 -19 -18 -18 -18 -17 -17 -18 -18 -17 -17 -16 -15 -15 -16 -15 -15 -15 -15 -15 -15 -15 -15 -15 -14 -14 -14 -14 -14 -13 -13 -12 -11 -10 -10 -9 -9 -8 -8 -8 -7 -7 -7 -7 -7 -7 -7 -7 -7 -7
-15 -16 -16 -17 -17 -17 -18 -18 -18 -18 -18 -18 -19 -19 -19 -20 -20 -20 -20 -20 -20 -19 -19 -19 -19 -19 -18 -18 -18 -18 -18 -18 -18 -18 -18 -17 -16 -15 -15 -15 -15 -15 -15 -15 -15 -14 -14 -14 -14 -14 -14 -14 -14 -13 -13 -13 -12 -11 -10 -10 -9 -8 -8 -8 -8 -7 -7 -7 -7 -7 -7 -7 -7 -7
-16 -16 -16 -17 -17 -18 -18 -18 -18 -18 -18 -19 -19 -19 -20 -20 -20 -20 -20 -20 -20 -20 -20 -19 -19 -19 -19 -18 -18 -18 -18 -18 -17 -17 -17 -17 -17 -16 -16 -15 -15 -15 -15 -14 -14 -14 -14 -14 -14 -14 -13 -13 -13 -13 -13 -13 -12 -12 -12 -11 -10 -9 -8 -8 -8 -8 -8 -8 -8 -8 -7 -7 -7 -7
-16 -16 -16 -17 -18 -18 -18 -18 -18 -18 -19 -19 -19 -20 -20 -20 -20 -20 -20 -20 -20 -20 -20 -20 -20 -19 -19 -19 -18 -18 -18 -18 -17 -17 -17 -17 -17 -17 -16 -15 -15 -15 -15 -14 -14 -14 -14 -14 -14 -14 -13 -13 -13 -13 -13 -13 -13 -13 -13 -12 -11 -10 -10 -9 -9 -9 -9 -9 -9 -9 -8 -8 -8 -7
-16 -16 -17 -17 -18 -18 -18 -18 -18 -19 -19 -19 -20 -20 -20 -20 -20 -20 -20 -20 -20 -20 -20 -20 -20 -20 -20 -19 -19 -18 -18 -17 -17 -17 -17 -17 -17 -17 -16 -15 -15 -15 -15 -15 -14 -14 -14 -14 -13 -13 -13 -13 -13 -13 -13 -13 -13 -13 -13 -13 -12 -11 -10 -10 -9 -10 -10 -10 -9 -9 -9 -8 -8 -8
-16 -16 -17 -17 -18 -18 -18 -18 -19 -19 -19 -20 -20 -20 -20 -20 -20 -20 -20 -20 -20 -20 -20 -20 -20 -20 -20 -20 -19 -19 -18 -18 -17 -17 -17 -17 -17 -17 -16 -15 -15 -15 -15 -15 -14 -14 -14 -13 -13 -13 -13 -13 -13 -13 -13 -13 -13 -13 -13 -13 -12 -11 -11 -10 -10 -10 -10 -9 -9 -9 -9 -8 -8 -8
-16 -17 -17 -17 -18 -18 -18 -18 -19 -19 -20 -20 -20 -20 -21 -20 -20 -20 -20 -20 -20 -20 -20 -20 -21 -20 -20 -20 -20 -19 -19 -18 -18 -18 -17 -17 -17 -16 -16 -16 -15 -15 -14 -14 -14 -14 -13 -13 -13 -13 -13 -13 -12 -12 -12 -12 -12 -12 -12 -12 -12 -12 -11 -11 -10 -10 -10 -9 -9 -9 -9 -8 -8 -8
-16 -17 -17 -18 -18 -18 -18 -19 -19 -20 -20 -20 -20 -20 -21 -20 -20 -20 -20 -20 -20 -20 -20 -20 -21 -20 -20 -20 -20 -20 -19 -19 -19 -18 -18 -17 -17 -16 -16 -16 -15 -15 -14 -14 -14 -14 -13 -13 -13 -13 -13 -13 -13 -12 -12 -12 -12 -12 -12 -12 -12 -12 -12 -11 -11 -11 -10 -10 -10 -9 -9 -8 -8 -8
-16 -17 -18 -18 -18 -19 -18 -19 -20 -20 -20 -20 -20 -20 -20 -20 -20 -20 -20 -20 -20 -20 -20 -20 -20 -20 -20 -20 -20 -20 -20 -19 -19 -18 -18 -18 -17 -17 -16 -16 -16 -16 -15 -15 -14 -14 -14 -14 -13 -13 -13 -13 -13 -12 -12 -12 -11 -12 -12 -12 -12 -12 -12 -12 -12 -11 -11 -11 -10 -9 -9 -8 -8 -9
-17 -17 -18 -18 -18 -19 -19 -19 -20 -20 -20 -20 -20 -20 -20 -20 -20 -20 -20 -20 -20 -20 -20 -20 -21 -20 -20 -20 -20 -20 -20 -20 -19 -19 -18 -18 -17 -17 -16 -16 -16 -16 -16 -16 -15 -15 -14 -14 -14 -13 -13 -13 -13 -13 -12 -12 -12 -12 -12 -12 -12 -11 -12 -12 -12 -12 -12 -11 -10 -9 -9 -9 -9 -9
-17 -17 -18 -18 -19 -19 -19 -19 -20 -20 -20 -20 -20 -20 -20 -20 -20 -20 -21 -21 -20 -20 -20 -20 -21 -21 -20 -20 -20 -20 -20 -20 -20 -19 -18 -18 -18 -17 -17 -17 -16 -16 -16 -16 -16 -15 -15 -15 -14 -14 -13 -13 -13 -13 -13 -12 -12 -12 -12 -12 -12 -12 -12 -12 -12 -12 -12 -12 -11 -10 -10 -9 -9 -9
-17 -18 -18 -18 -19 -19 -19 -19 -19 -20 -20 -20 -20 -20 -20 -20 -20 -20 -20 -20 -20 -20 -20 -20 -21 -21 -21 -20 -20 -20 -20 -20 -20 -20 -19 -19 -18 -18 -17 -17 -17 -16 -16 -16 -16 -16 -15 -15 -15 -14 -14 -13 -13 -13 -13 -13 -12 -12 -12 -12 -12 -12 -12 -12 -12 -12 -12 -12 -11 -11 -11 -10 -10 -10
-17 -18 -18 -19 -19 -19 -19 -19 -19 -20 -20 -20 -20 -20 -20 -20 -20 -20 -20 -20 -20 -20 -20 -20 -20 -20 -20 -20 -20 -20 -20 -20 -20 -20 -20 -19 -19 -19 -18 -18 -17 -17 -16 -16 -16 -15 -15 -15 -15 -15 -15 -14 -14 -14 -14 -13 -13 -12 -12 -12 -12 -12 -12 -11 -11 -11 -11 -12 -12 -11 -11 -11 -10 -10
-17 -18 -18 -19 -19 -19 -19 -19 -19 -20 -20 -20 -20 -20 -20 -20 -20 -20 -20 -20 -20 -20 -20 -20 -20 -20 -20 -20 -20 -20 -20 -20 -20 -20 -20 -20 -20 -19 -19 -18 -17 -17 -16 -16 -16 -16 -15 -15 -15 -15 -15 -15 -14 -14 -14 -14 -13 -13 -12 -12 -12 -12 -12 -11 -11 -11 -11 -11 -11 -11 -11 -11 -11 -10
-17 -18 -18 -18 -19 -19 -19 -19 -19 -20 -20 -20 -20 -20 -20 -20 -20 -20 -20 -20 -20 -20 -20 -20 -20 -20 -20 -20 -20 -20 -20 -20 -20 -20 -20 -20 -20 -19 -19 -19 -18 -17 -17 -17 -16 -16 -16 -16 -15 -15 -15 -15 -15 -15 -15 -15 -14 -14 -13 -13 -13 -12 -12 -12 -12 -12 -11 -11 -11 -11 -11 -11 -10 -10
-17 -18 -18 -18 -19 -19 -19 -20 -20 -20 -20 -20 -20 -20 -20 -20 -20 -20 -20 -20 -20 -20 -20 -20 -20 -20 -20 -20 -20 -20 -20 -20 -20 -20 -20 -20 -20 -20 -19 -19 -19 -19 -19 -18 -18 -17 -17 -16 -16 -16 -15 -15 -15 -15 -15 -15 -15 -14 -14 -13 -13 -13 -13 -12 -12 -12 -12 -12 -12 -11 -11 -11 -11 -10
-17 -18 -18 -18 -19 -19 -20 -20 -20 -20 -20 -20 -20 -20 -20 -20 -20 -20 -20 -20 -20 -20 -20 -20 -20 -20 -21 -21 -21 -20 -20 -20 -20 -20 -20 -20 -20 -20 -20 -20 -19 -19 -19 -19 -19 -18 -17 -17 -16 -16 -16 -15 -15 -15 -15 -15 -15 -15 -14 -14 -14 -13 -13 -13 -13 -12 -12 -12 -12 -12 -12 -11 -11 -11
Height
2864 2861 2856 2852 2847 2843 2839 2835 2832 2828 2824 2822 2819 2817 2814 2808 2803 2801 2799 2797 2797 2796 2793 2791 2789 2786 2782 2779 2777 2774 2772 2769 2766 2765 2764 2762 2762 2762 2761 2761 2762 2763 2766 2769 2772 2775 2778 2782 2785 2788 2792 2796 2800 2804 2808 2812 2816 2820 2824 2828 2834 2838 2845 2853 2858 2863 2867 2872 2880 2884 2886 2890 2895 2901
2860 2857 2853 2848 2843 2838 2835 2832 2828 2824 2821 2819 2817 2814 2811 2808 2804 2800 2796 2792 2793 2793 2790 2787 2784 2781 2778 2774 2771 2769 2767 2764 2762 2760 2759 2758 2758 2757 2757 2757 2757 2758 2760 2763 2766 2770 2773 2776 2779 2782 2786 2790 2794 2798 2802 2806 2809 2813 2818 2823 2828 2832 2838 2845 2852 2858 2863 2867 2875 2880 2883 2887 2892 2897
2856 2853 2848 2843 2839 2835 2832 2828 2825 2821 2818 2815 2813 2811 2809 2806 2803 2800 2794 2789 2788 2789 2786 2783 2780 2776 2773 2770 2767 2765 2762 2760 2757 2756 2755 2754 2753 2753 2753 2753 2753 2754 2755 2758 2761 2765 2768 2772 2774 2777 2781 2784 2788 2792 2796 2800 2803 2807 2812 2817 2823 2827 2832 2838 2845 2853 2859 2863 2869 2875 2879 2883 2887 2894
2852 2848 2844 2839 2835 2831 2828 2825 2821 2818 2816 2813 2810 2808 2805 2803 2801 2797 2793 2787 2784 2785 2782 2779 2776 2772 2769 2767 2765 2761 2758 2756 2754 2752 2751 2750 2749 2748 2748 2748 2749 2749 2751 2753 2756 2759 2763 2766 2769 2772 2775 2779 2783 2787 2791 2795 2798 2802 2807 2812 2817 2822 2827 2832 2839 2846 2853 2859 2864 2869 2874 2877 2881 2888
2847 2843 2839 2836 2832 2828 2825 2822 2819 2815 2813 2809 2807 2805 2802 2800 2798 2795 2790 2785 2780 2780 2779 2775 2772 2769 2766 2763 2761 2758 2754 2753 2750 2748 2747 2746 2745 2744 2744 2744 2744 2745 2746 2748 2750 2753 2757 2760 2763 2766 2769 2772 2776 2781 2785 2789 2793 2797 2801 2806 2812 2817 2822 2827 2832 2839 2847 2854 2859 2864 2869 2872 2875 2881
2843 2839 2836 2832 2828 2825 2822 2819 2815 2812 2809 2806 2803 2801 2799 2797 2795 2792 2787 2782 2777 2775 2774 2772 2769 2766 2763 2759 2757 2754 2750 2748 2747 2745 2743 2742 2741 2740 2739 2740 2740 2741 2741 2743 2745 2747 2750 2754 2757 2760 2763 2766 2771 2775 2779 2784 2788 2791 2796 2801 2807 2812 2817 2822 2826 2832 2840 2848 2855 2859 2864 2868 2871 2875
2839 2835 2832 2829 2825 2821 2818 2816 2812 2808 2806 2803 2800 2798 2796 2793 2791 2788 2784 2780 2776 2771 2769 2768 2764 2761 2758 2755 2752 2750 2747 2744 2743 2741 2740 2738 2737 2736 2735 2735 2736 2736 2737 2738 2739 2742 2744 2748 2751 2754 2757 2760 2765 2769 2774 2778 2782 2786 2791 2796 2802 2807 2812 2817 2821 2826 2834 2844 2851 2854 2859 2864 2867 2870
2835 2832 2829 2825 2821 2818 2815 2812 2809 2805 2802 2799 2796 2795 2793 2790 2787 2785 2782 2778 2774 2769 2765 2763 2761 2757 2753 2751 2749 2746 2742 2740 2739 2737 2736 2735 2733 2732 2732 2731 2732 2732 2732 2733 2734 2736 2738 2742 2745 2749 2752 2755 2759 2764 2769 2773 2778 2782 2786 2791 2797 2803 2808 2812 2816 2820 2827 2838 2846 2850 2853 2860 2864 2867
2832 2829 2825 2822 2818 2815 2812 2809 2805 2802 2799 2796 2793 2791 2790 2787 2784 2781 2779 2775 2772 2767 2762 2758 2756 2754 2751 2748 2746 2744 2739 2736 2735 2734 2732 2731 2730 2729 2728 2727 2727 2727 2728 2728 2729 2731 2733 2736 2739 2743 2746 2749 2753 2758 2763 2768 2773 2778 2782 2786 2792 2798 2803 2808 2811 2815 2822 2832 2841 2845 2848 2855 2861 2863
2828 2825 2822 2819 2815 2812 2808 2805 2802 2799 2796 2793 2791 2788 2786 2784 2781 2778 2775 2772 2769 2765 2760 2756 2753 2751 2749 2745 2743 2741 2736 2732 2730 2729 2728 2727 2726 2725 2724 2724 2723 2723 2723 2723 2724 2725 2727 2730 2733 2737 2741 2744 2748 2753 2758 2763 2767 2772 2777 2782 2787 2793 2798 2803 2807 2811 2817 2827 2836 2841 2845 2851 2857 2859
2825 2822 2819 2815 2813 2809 2805 2801 2798 2796 2793 2790 2788 2786 2783 2780 2777 2774 2771 2768 2765 2761 2757 2754 2750 2748 2747 2744 2740 2737 2733 2730 2727 2725 2723 2722 2722 2721 2720 2719 2719 2718 2718 2718 2719 2720 2721 2724 2727 2731 2735 2739 2743 2748 2754 2759 2763 2768 2773 2777 2783 2788 2793 2798 2803 2807 2812 2821 2830 2836 2841 2848 2852 2856
2822 2818 2815 2813 2809 2805 2801 2798 2795 2793 2790 2787 2785 2783 2780 2776 2772 2769 2767 2765 2762 2758 2754 2752 2749 2746 2745 2742 2738 2734 2731 2727 2725 2723 2719 2717 2717 2716 2715 2715 2714 2713 2712 2713 2713 2714 2716 2718 2721 2725 2730 2734 2738 2743 2748 2754 2759 2764 2769 2774 2779 2784 2788 2793 2799 2803 2808 2816 2825 2832 2837 2843 2848 2852
2819 2815 2812 2810 2806 2802 2798 2795 2792 2789 2786 2783 2781 2779 2776 2772 2769 2766 2763 2761 2758 2755 2752 2749 2747 2744 2742 2739 2735 2732 2729 2724 2722 2720 2716 2714 2712 2710 2709 2709 2709 2708 2707 2707 2708 2709 2710 2712 2715 2719 2724 2729 2733 2738 2744 2750 2755 2760 2765 2770 2775 2780 2784 2789 2794 2799 2804 2810 2819 2826 2832 2838 2844 2848
2815 2812 2809 2806 2803 2799 2795 2792 2790 2787 2784 2780 2778 2775 2772 2769 2766 2763 2760 2757 2755 2753 2750 2747 2745 2742 2740 2738 2733 2729 2726 2722 2718 2716 2713 2710 2707 2705 2702 2703 2703 2703 2701 2701 2701 2703 2705 2706 2708 2713 2718 2724 2729 2733 2740 2746 2752 2756 2761 2766 2771 2775 2780 2785 2789 2795 2800 2805 2812 2821 2827 2833 2839 2844
2812 2809 2806 2803 2800 2796 2792 2790 2787 2785 2781 2778 2775 2773 2770 2767 2764 2761 2757 2754 2753 2750 2747 2745 2743 2739 2737 2735 2731 2726 2722 2719 2715 2713 2709 2705 2702 2698 2696 2695 2696 2697 2696 2694 2695 2698 2700 2700 2703 2708 2714 2719 2724 2729 2736 2742 2747 2752 2756 2762 2767 2771 2775 2780 2785 2791 2796 2801 2807 2815 2822 2828 2836 2841
2809 2806 2803 2800 2797 2793 2789 2787 2785 2782 2780 2776 2773 2771 2768 2765 2763 2760 2757 2753 2750 2748 2744 2741 2741 2738 2734 2732 2729 2723 2718 2715 2712 2709 2706 2701 2696 2692 2689 2688 2689 2690 2690 2689 2689 2692 2695 2695 2697 2702 2709 2714 2720 2725 2731 2736 2742 2747 2752 2758 2763 2767 2772 2777 2781 2787 2793 2797 2803 2810 2817 2824 2832 2838
2805 2803 2800 2798 2794 2790 2786 2784 2782 2780 2777 2774 2771 2768 2765 2763 2761 2758 2756 2753 2749 2745 2741 2739 2738 2736 2732 2728 2724 2719 2714 2711 2708 2705 2702 2697 2692 2688 2685 2683 2683 2683 2683 2683 2683 2686 2690 2691 2691 2697 2704 2709 2715 2720 2725 2731 2738 2744 2749 2754 2760 2764 2769 2773 2778 2783 2789 2794 2799 2806 2812 2819 2827 2834
2802 2800 2797 2795 2791 2788 2784 2782 2779 2777 2774 2771 2769 2766 2763 2761 2759 2757 2754 2752 2748 2745 2741 2738 2736 2734 2729 2723 2718 2714 2710 2706 2702 2699 2695 2692 2688 2684 2682 2679 2678 2677 2677 2677 2677 2680 2685 2686 2686 2692 2699 2704 2709 2716 2721 2727 2734 2740 2746 2751 2756 2762 2766 2771 2775 2780 2785 2791 2796 2802 2807 2813 2821 2829
2798 2796 2794 2791 2788 2785 2782 2779 2777 2774 2771 2769 2766 2764 2761 2759 2758 2755 2752 2749 2746 2743 2740 2736 2732 2729 2725 2719 2714 2710 2706 2702 2698 2694 2691 2687 2683 2681 2679 2677 2675 2673 2672 2671 2671 2674 2679 2680 2681 2688 2694 2699 2705 2712 2717 2723 2730 2737 2743 2748 2753 2759 2764 2768 2773 2777 2781 2787 2793 2798 2803 2808 2815 2823
2794 2793 2791 2788 2786 2783 2780 2777 2774 2771 2768 2766 2763 2761 2758 2757 2755 2752 2749 2746 2743 2740 2737 2733 2730 2726 2721 2716 2712 2708 2704 2701 2697 2693 2689 2685 2681 2678 2676 2674 2672 2670 2668 2666 2666 2668 2673 2675 2677 2683 2689 2694 2700 2707 2713 2720 2726 2733 2740 2745 2750 2756 2761 2766 2770 2774 2778 2783 2789 2794 2799 2804 2810 2817
2792 2790 2788 2786 2783 2781 2778 2775 2772 2769 2765 2763 2760 2758 2756 2754 2752 2750 2748 2745 2741 2738 2734 2732 2729 2724 2719 2715 2712 2708 2704 2700 2695 2691 2687 2683 2679 2676 2673 2671 2669 2666 2664 2662 2661 2663 2668 2670 2672 2678 2684 2688 2695 2703 2710 2717 2723 2729 2736 2742 2747 2752 2758 2762 2767 2771 2775 2779 2784 2790 2795 2800 2805 2811
2789 2788 2786 2783 2781 2778 2776 2773 2770 2766 2763 2760 2758 2755 2753 2751 2749 2747 2746 2744 2742 2738 2735 2731 2727 2722 2718 2714 2711 2707 2703 2699 2694 2690 2686 2682 2678 2674 2671 2669 2666 2663 2661 2659 2659 2661 2664 2666 2667 2673 2679 2684 2692 2701 2708 2715 2721 2726 2733 2738 2743 2749 2754 2759 2764 2768 2772 2776 2781 2785 2790 2795 2801 2806
2786 2785 2783 2781 2778 2776 2773 2771 2768 2764 2761 2758 2755 2752 2749 2748 2746 2745 2743 2742 2740 2738 2735 2731 2726 2722 2717 2713 2710 2706 2702 2698 2693 2689 2685 2681 2677 2674 2671 2668 2664 2661 2659 2658 2659 2661 2663 2663 2665 2670 2676 2683 2692 2700 2706 2712 2718 2724 2730 2735 2740 2746 2751 2755 2760 2764 2768 2773 2777 2781 2786 2791 2796 2801
2784 2782 2780 2778 2776 2773 2771 2768 2765 2762 2758 2755 2752 2749 2747 2745 2744 2743 2741 2738 2736 2734 2731 2727 2724 2720 2716 2713 2708 2704 2701 2697 2693 2689 2685 2681 2676 2673 2670 2667 2663 2660 2658 2657 2658 2659 2661 2662 2665 2669 2675 2682 2689 2697 2704 2710 2716 2721 2727 2732 2737 2743 2747 2752 2757 2761 2765 2770 2774 2778 2782 2787 2792 2797
2781 2779 2778 2776 2773 2771 2768 2766 2763 2760 2757 2753 2750 2747 2745 2743 2741 2740 2739 2736 2733 2730 2727 2724 2722 2719 2716 2712 2708 2704 2700 2697 2693 2689 2685 2680 2676 2673 2670 2667 2664 2662 2660 2659 2658 2659 2660 2663 2666 2670 2674 2680 2687 2694 2700 2707 2713 2718 2724 2729 2735 2740 2744 2748 2753 2758 2763 2767 2771 2775 2779 2783 2789 2794
2778 2777 2775 2773 2771 2769 2766 2764 2761 2758 2755 2752 2749 2747 2744 2742 2740 2738 2736 2734 2731 2728 2725 2723 2721 2718 2715 2712 2709 2705 2700 2696 2692 2689 2685 2680 2676 2673 2670 2668 2666 2665 2663 2663 2662 2662 2663 2665 2668 2671 2674 2679 2685 2691 2698 2704 2710 2716 2721 2726 2731 2736 2741 2746 2750 2755 2760 2764 2768 2772 2776 2781 2786 2791
2776 2775 2773 2771 2769 2767 2764 2762 2759 2756 2754 2752 2750 2747 2744 2741 2739 2736 2734 2732 2729 2726 2724 2722 2720 2717 2715 2712 2709 2705 2700 2695 2691 2688 2685 2681 2677 2673 2671 2669 2668 2667 2666 2666 2666 2667 2668 2669 2671 2674 2677 2680 2685 2690 2696 2702 2708 2714 2719 2723 2728 2733 2738 2743 2747 2752 2757 2761 2765 2769 2773 2778 2782 2787
2773 2772 2771 2769 2767 2765 2763 2760 2758 2756 2754 2753 2750 2747 2743 2740 2737 2735 2733 2731 2728 2726 2724 2721 2719 2716 2714 2711 2708 2704 2700 2695 2691 2687 2684 2680 2677 2675 2672 2671 2670 2669 2669 2669 2669 2670 2672 2674 2676 2679 2681 2683 2686 2690 2696 2702 2707 2712 2716 2721 2725 2730 2734 2739 2744 2749 2753 2758 2762 2765 2769 2774 2778 2782
2771 2770 2768 2767 2765 2763 2762 2759 2757 2756 2755 2752 2749 2746 2742 2739 2737 2735 2733 2730 2728 2726 2723 2721 2718 2716 2713 2710 2707 2703 2700 2696 2693 2689 2685 2681 2677 2675 2674 2673 2672 2671 2671 2672 2672 2673 2674 2676 2679 2681 2684 2686 2688 2693 2698 2702 2706 2711 2715 2719 2723 2728 2732 2737 2741 2745 2750 2754 2759 2763 2767 2772 2776 2780
2769 2768 2767 2765 2764 2762 2760 2758 2757 2756 2754 2752 2748 2745 2742 2739 2737 2736 2733 2731 2728 2725 2723 2720 2718 2715 2713 2710 2707 2704 2701 2698 2695 2692 2689 2685 2680 2677 2675 2675 2674 2674 2674 2674 2674 2675 2677 2679 2680 2683 2686 2689 2691 2695 2700 2703 2706 2710 2714 2718 2722 2725 2729 2734 2738 2742 2747 2751 2756 2761 2765 2769 2773 2777
2767 2766 2765 2764 2763 2761 2759 2758 2757 2756 2753 2750 2747 2744 2742 2740 2738 2736 2734 2731 2728 2725 2723 2720 2717 2715 2712 2710 2707 2705 2703 2700 2697 2694 2691 2688 2684 2679 2677 2676 2676 2676 2676 2676 2677 2678 2679 2681 2683 2685 2688 2691 2693 2697 2701 2704 2707 2710 2713 2716 2719 2723 2727 2731 2735 2740 2744 2748 2753 2758 2761 2765 2769 2773
2765 2764 2763 2762 2762 2760 2759 2757 2756 2754 2751 2749 2747 2744 2742 2740 2738 2736 2733 2731 2729 2726 2724 2721 2718 2716 2713 2710 2708 2706 2703 2701 2698 2695 2693 2691 2687 2684 2681 2679 2678 2678 2678 2679 2679 2679 2681 2683 2685 2687 2690 2692 2695 2698 2701 2704 2707 2709 2711 2715 2718 2721 2725 2729 2733 2737 2741 2746 2750 2754 2758 2762 2767 2771
2763 2763 2762 2761 2761 2759 2758 2757 2755 2753 2750 2748 2746 2744 2742 2740 2738 2736 2734 2732 2730 2728 2725 2722 2720 2717 2714 2711 2709 2706 2704 2702 2699 2697 2695 2693 2691 2688 2685 2683 2682 2681 2681 2681 2681 2682 2683 2685 2687 2689 2692 2694 2697 2699 2702 2705 2707 2709 2712 2715 2717 2720 2724 2727 2731 2735 2739 2743 2747 2752 2756 2760 2765 2769
2762 2761 2760 2760 2759 2758 2757 2755 2754 2752 2749 2748 2746 2745 2743 2741 2739 2737 2735 2733 2731 2728 2726 2723 2721 2718 2715 2713 2710 2707 2705 2702 2700 2698 2696 2694 2693 2691 2689 2687 2685 2684 2684 2683 2683 2684 2685 2687 2688 2690 2692 2695 2698 2700 2702 2705 2707 2709 2712 2715 2717 2720 2723 2726 2729 2733 2737 2741 2745 2749 2753 2757 2761 2765
2760 2759 2759 2759 2758 2757 2756 2754 2753 2751 2749 2748 2747 2745 2743 2742 2740 2738 2736 2734 2731 2729 2726 2724 2721 2719 2716 2714 2711 2709 2706 2703 2701 2699 2698 2696 2694 2693 2691 2689 2688 2687 2686 2685 2685 2686 2687 2688 2690 2691 2693 2695 2698 2701 2703 2705 2707 2710 2712 2715 2717 2720 2723 2725 2729 2732 2735 2739 2742 2746 2750 2754 2758 2761
2758 2758 2757 2757 2757 2756 2755 2754 2752 2751 2749 2748 2747 2745 2744 2742 2740 2738 2736 2734 2732 2729 2727 2725 2722 2720 2717 2715 2712 2710 2708 2705 2703 2701 2699 2697 2695 2694 2693 2691 2690 2689 2688 2687 2687 2687 2688 2689 2691 2692 2694 2696 2699 2701 2703 2705 2707 2709 2711 2714 2716 2719 2722 2725 2727 2730 2733 2737 2740 2743 2747 2750 2754 2757
2756 2756 2756 2756 2756 2755 2754 2753 2752 2750 2749 2747 2746 2745 2744 2742 2740 2738 2736 2734 2732 2730 2728 2725 2723 2721 2718 2716 2714 2711 2709 2707 2705 2703 2701 2699 2697 2696 2694 2693 2692 2691 2690 2689 2689 2689 2690 2691 2692 2693 2695 2696 2698 2701 2703 2704 2706 2708 2711 2713 2715 2718 2720 2723 2726 2729 2731 2734 2737 2741 2744 2747 2750 2753
2754 2754 2754 2755 2754 2754 2753 2753 2751 2750 2749 2747 2746 2745 2743 2742 2740 2738 2736 2734 2732 2730 2728 2726 2724 2722 2719 2717 2715 2713 2710 2708 2706 2704 2702 2700 2699 2697 2696 2695 2694 2693 2692 2691 2691 2691 2691 2692 2693 2694 2695 2696 2698 2700 2702 2704 2706 2708 2710 2712 2714 2716 2719 2721 2724 2727 2730 2732 2735 2738 2741 2744 2748 2750
2752 2753 2753 2753 2753 2753 2752 2752 2751 2750 2748 2747 2746 2744 2743 2741 2739 2738 2736 2735 2733 2731 2729 2727 2724 2722 2720 2718 2716 2713 2711 2710 2707 2705 2703 2701 2700 2698 2697 2696 2695 2695 2694 2693 2693 2693 2693 2693 2693 2694 2695 2696 2697 2699 2701 2703 2705 2707 2709 2710 2713 2715 2717 2720 2722 2725 2728 2730 2733 2736 2739 2742 2745 2748
2751 2751 2751 2752 2752 2752 2751 2751 2750 2749 2748 2747 2745 2744 2743 2742 2740 2738 2736 2735 2733 2731 2730 2727 2725 2723 2721 2719 2717 2714 2712 2710 2708 2706 2704 2702 2701 2700 2698 2697 2697 2696 2695 2695 2695 2695 2695 2695 2694 2694 2695 2696 2697 2699 2700 2702 2704 2706 2708 2710 2712 2714 2716 2719 2721 2723 2725 2728 2731 2734 2737 2739 2742 2745
2749 2749 2750 2750 2751 2750 2750 2750 2749 2748 2747 2746 2745 2744 2743 2742 2740 2738 2737 2735 2733 2732 2730 2728 2726 2724 2722 2720 2718 2716 2714 2712 2710 2708 2706 2704 2702 2701 2700 2699 2698 2697 2696 2696 2696 2696 2696 2696 2696 2696 2696 2696 2697 2698 2700 2702 2703 2705 2707 2709 2710 2713 2715 2717 2719 2721 2724 2726 2728 2731 2734 2736 2739 2742
2747 2748 2748 2749 2749 2749 2749 2749 2749 2748 2747 2746 2745 2744 2743 2742 2740 2739 2737 2735 2733 2732 2730 2729 2727 2725 2723 2721 2719 2717 2715 2713 2711 2709 2708 2706 2704 2703 2701 2700 2699 2698 2697 2697 2696 2696 2696 2696 2697 2697 2697 2697 2698 2698 2700 2701 2702 2703 2705 2707 2709 2711 2713 2715 2717 2719 2722 2724 2726 2728 2731 2733 2736 2739
2745 2746 2747 2747 2748 2748 2748 2748 2748 2747 2746 2745 2744 2743 2742 2741 2740 2739 2737 2735 2733 2732 2730 2729 2727 2726 2724 2722 2720 2718 2716 2714 2712 2710 2709 2707 2705 2704 2702 2701 2699 2698 2697 2697 2697 2697 2697 2697 2697 2697 2697 2698 2698 2699 2700 2701 2701 2702 2704 2705 2707 2709 2711 2713 2714 2717 2719 2721 2723 2725 2728 2730 2733 2735
2744 2745 2745 2746 2746 2747 2747 2747 2747 2746 2745 2745 2744 2743 2742 2740 2739 2738 2736 2735 2733 2732 2730 2729 2727 2726 2724 2722 2720 2719 2717 2715 2713 2711 2709 2708 2706 2705 2703 2702 2701 2700 2699 2698 2698 2698 2697 2697 2697 2697 2697 2698 2699 2699 2700 2701 2701 2702 2703 2704 2705 2707 2709 2710 2712 2714 2716 2718 2720 2722 2724 2726 2728 2731
2742 2743 2744 2745 2745 2745 2746 2746 2746 2745 2745 2744 2743 2742 2741 2740 2738 2737 2736 2735 2733 2732 2730 2729 2727 2725 2724 2722 2721 2719 2718 2716 2714 2712 2710 2709 2707 2706 2704 2703 2702 2702 2701 2700 2699 2698 2697 2697 2697 2697 2697 2698 2698 2699 2700 2701 2701 2702 2703 2703 2704 2705 2707 2708 2710 2711 2713 2716 2717 2719 2721 2723 2724 2726
Wind_Speed
41 41 41 40 40 38 37 36 35 34 33 32 31 30 31 34 38 36 29 25 26 27 29 30 29 28 28 29 28 29 28 28 30 29 28 26 26 27 29 31 34 37 40 43 44 44 45 47 49 50 49 49 52 55 57 57 58 57 57 61 66 72 78 74 62 50 48 58 65 53 46 63 76 64
40 40 40 39 39 38 37 36 34 34 33 32 30 29 29 31 34 38 37 31 27 28 30 31 31 30 30 32 32 32 30 28 29 30 29 28 27 27 28 30 32 35 38 42 44 44 45 46 48 50 49 49 50 53 56 57 58 58 56 59 64 70 76 79 75 63 53 54 63 61 45 51 72 71
39 39 39 38 38 37 36 35 34 33 33 32 30 28 28 30 32 35 38 36 31 30 32 31 31 32 32 34 35 33 29 27 27 29 29 29 29 28 28 29 31 34 37 40 43 44 45 45 47 49 50 49 49 52 54 55 58 58 56 56 61 67 74 79 80 74 63 55 59 64 52 46 68 75
38 39 38 37 37 37 36 34 33 33 32 31 29 27 27 29 31 33 36 37 34 31 32 32 31 32 33 35 34 30 25 23 24 26 28 29 30 29 29 29 29 32 35 38 42 44 45 45 46 48 50 50 49 50 52 54 56 57 56 56 59 64 70 76 80 79 71 61 56 61 57 47 63 77
37 38 37 36 36 36 35 34 33 32 32 30 28 26 27 28 30 32 34 35 35 32 32 32 31 31 33 33 31 28 25 22 21 23 25 27 28 30 30 29 29 30 32 35 39 43 45 45 45 47 49 50 50 50 51 52 54 56 56 55 58 62 67 72 78 80 76 65 55 56 58 49 56 75
36 36 36 35 35 35 34 33 32 32 31 30 27 25 27 29 30 31 32 33 35 34 32 31 31 31 32 32 31 30 29 26 23 23 23 24 26 28 29 29 29 29 31 33 37 41 44 45 46 47 49 50 50 50 51 51 52 54 55 55 57 62 66 70 76 81 79 70 56 52 58 52 48 65
35 35 35 34 35 35 34 32 32 32 31 29 27 25 26 29 29 30 31 32 34 36 33 31 32 33 33 34 34 35 34 31 27 25 23 23 24 25 28 29 29 29 30 31 34 39 43 45 46 47 49 50 50 50 51 52 51 52 54 54 55 59 63 68 74 80 82 74 60 51 56 56 47 52
34 34 34 34 34 34 33 32 32 32 31 29 27 25 25 28 30 29 30 31 33 35 34 32 33 34 35 36 37 38 38 34 30 27 25 24 22 23 26 28 29 29 29 31 33 36 41 45 46 47 49 50 51 50 51 52 51 50 52 53 54 56 59 65 71 77 81 78 65 54 55 56 51 48
33 33 33 33 34 33 32 31 31 31 31 29 27 25 25 27 29 29 29 30 32 34 34 34 35 35 36 38 38 38 38 36 31 28 27 26 24 22 23 26 28 29 30 30 32 35 39 43 46 48 49 50 51 50 50 52 51 50 50 51 53 54 56 62 69 73 79 81 71 58 55 56 52 49
32 32 32 32 32 33 32 31 31 31 31 29 26 25 25 27 28 28 28 29 31 32 34 35 36 36 36 38 37 36 35 34 31 29 28 27 26 24 23 24 26 29 30 30 31 34 37 42 46 48 49 50 51 51 51 52 52 50 50 50 51 53 54 59 67 70 74 81 78 64 56 56 52 48
30 31 31 31 31 32 31 30 30 30 30 29 25 24 25 26 27 27 27 29 31 32 33 34 36 36 36 36 36 33 31 30 28 29 29 27 26 25 24 23 24 27 30 30 31 33 36 40 45 48 49 50 51 51 50 52 53 51 49 50 50 51 52 56 62 66 70 78 81 71 59 56 53 46
29 30 30 30 31 31 30 29 30 30 30 29 25 23 25 27 27 28 28 29 30 32 34 34 35 36 35 34 32 31 29 28 26 26 29 29 28 27 25 24 24 25 28 30 31 33 35 39 44 47 50 50 51 52 51 51 52 51 49 49 49 49 51 54 57 61 66 75 82 76 64 58 54 47
28 29 29 29 30 30 29 29 29 30 30 29 26 24 26 27 28 29 29 30 31 33 34 34 34 35 34 32 30 28 28 28 27 27 30 30 29 28 27 24 24 24 26 29 31 32 34 38 42 47 50 51 51 52 52 51 52 51 49 48 48 49 50 52 54 57 62 71 80 80 70 61 56 51
27 28 28 28 29 28 28 28 29 29 30 29 26 24 25 27 28 29 30 31 32 33 33 34 34 35 34 30 28 28 27 27 28 29 31 31 30 30 29 27 26 27 28 30 31 33 34 38 42 46 50 51 51 52 52 51 51 52 50 48 48 48 49 50 52 54 59 66 75 81 77 66 58 54
26 27 27 27 28 27 27 27 28 28 29 28 25 22 23 25 26 28 30 32 33 33 33 34 34 35 34 29 26 28 27 26 28 29 31 32 32 32 32 29 27 28 30 32 33 32 34 38 42 46 50 51 52 52 52 51 51 52 51 49 48 48 48 49 50 52 57 63 69 77 80 73 63 55
26 26 26 26 27 27 27 27 27 27 27 27 24 21 21 23 24 26 28 31 33 32 34 35 33 34 35 30 27 28 29 28 28 30 31 32 32 33 33 31 28 29 31 32 32 31 33 38 42 46 49 51 52 53 52 51 52 52 51 50 49 48 47 48 49 50 54 59 65 72 78 77 69 58
25 25 25 25 25 26 27 27 28 27 26 26 23 21 21 21 22 25 27 29 31 32 34 36 34 32 34 33 30 30 32 31 30 31 31 30 30 30 31 30 28 28 31 32 31 29 29 36 43 46 48 50 52 53 53 52 52 52 52 50 49 49 47 47 47 48 51 56 61 67 75 78 75 65
24 25 25 24 24 25 26 27 28 27 26 26 23 19 19 19 20 23 25 27 28 30 32 34 34 32 33 34 34 34 35 35 35 35 34 31 28 25 24 23 22 25 29 31 32 28 26 32 41 45 46 49 52 53 53 53 52 52 52 51 49 49 47 46 46 46 48 52 57 62 71 78 79 73
24 25 25 24 24 24 26 27 28 27 27 26 23 19 18 18 18 21 24 26 27 29 31 32 34 35 33 35 37 37 38 38 38 38 36 31 27 24 21 18 18 21 25 29 31 27 24 30 39 43 45 48 52 53 53 53 52 51 52 51 50 49 47 46 46 46 46 48 52 57 65 74 79 79
23 24 24 24 23 24 25 26 27 27 27 27 24 20 17 16 17 18 22 26 28 29 30 31 34 34 33 35 36 36 38 38 38 37 33 27 24 23 20 18 17 19 22 26 30 28 24 29 37 41 43 47 52 53 53 52 51 51 51 51 50 49 48 46 45 45 45 45 48 53 58 67 76 80
22 23 23 23 23 23 24 25 26 27 27 27 25 22 17 15 16 17 19 23 25 28 29 30 31 31 32 33 34 34 36 36 37 35 29 23 21 19 17 16 15 17 20 24 28 27 24 28 36 39 41 47 52 52 52 52 51 50 50 51 50 48 47 47 45 45 45 43 45 49 53 60 68 75
21 22 22 22 22 23 23 24 25 26 26 26 25 24 19 16 15 17 18 19 20 22 25 27 27 28 30 32 33 33 34 34 34 31 24 21 21 17 14 14 13 15 18 20 24 23 21 28 36 38 40 46 51 51 51 51 50 50 50 50 50 49 47 47 46 45 44 43 43 45 48 53 60 67
20 20 21 21 22 22 23 23 23 24 25 25 25 25 23 19 17 17 18 19 18 18 20 21 23 25 28 30 32 32 32 31 32 29 23 23 23 16 13 13 11 12 14 15 18 17 18 27 34 35 38 45 49 49 49 50 49 49 49 49 49 49 47 47 47 46 44 42 41 42 44 47 53 60
19 19 19 20 21 22 22 22 22 23 24 25 25 25 25 22 19 17 18 20 20 20 20 21 22 24 26 29 31 31 30 29 29 27 24 24 21 14 12 12 10 8 10 10 11 11 17 27 31 32 37 42 45 46 47 48 48 48 48 49 49 49 48 47 47 47 45 43 41 41 41 43 47 54
17 18 18 19 20 21 22 22 22 22 23 24 25 25 24 22 20 18 17 18 20 21 21 22 23 24 25 27 29 29 29 28 27 27 24 22 19 12 9 9 9 9 8 4 2 8 16 24 26 30 36 39 41 44 44 45 47 48 47 48 48 48 48 47 46 47 46 45 43 41 41 41 43 48
16 17 17 18 19 20 21 21 21 22 22 23 23 22 21 20 19 18 17 18 19 20 21 22 23 23 24 25 26 26 26 26 26 26 24 22 21 16 10 8 8 6 6 8 9 8 11 18 23 29 35 37 37 40 41 43 45 46 46 47 48 48 48 47 46 46 46 45 44 41 40 40 41 43
15 15 16 16 18 19 20 20 20 21 21 20 19 19 18 17 17 17 17 17 18 19 21 22 22 23 23 24 24 24 25 25 26 26 24 22 22 20 13 9 7 3 2 6 9 10 12 16 20 25 31 34 33 32 35 40 43 43 44 46 47 47 47 46 45 45 45 45 43 41 40 40 40 41
13 14 15 15 16 17 18 19 19 18 18 16 16 17 17 17 17 18 18 18 19 20 21 22 22 22 23 23 24 24 25 25 26 27 27 25 23 21 16 11 7 4 4 9 15 18 18 18 17 18 23 29 30 28 30 36 40 42 43 45 46 46 46 46 44 44 44 44 44 43 41 40 39 40
12 13 13 14 15 16 17 17 17 16 15 15 16 18 19 20 21 22 21 20 20 20 20 21 21 22 22 23 24 25 25 23 22 24 28 29 26 22 19 14 10 7 9 14 18 18 16 14 14 17 19 22 25 24 27 32 37 39 41 44 46 46 46 45 44 44 43 43 43 42 40 38 37 37
11 11 12 13 14 14 15 15 14 14 14 15 17 19 21 22 22 22 22 22 21 21 21 22 22 22 22 23 23 24 24 22 18 18 23 27 26 23 20 16 12 9 9 10 12 14 16 14 14 18 19 18 19 20 23 28 32 34 36 39 42 44 44 44 43 43 42 42 42 42 40 38 37 37
10 10 10 11 12 13 13 13 13 13 14 16 18 20 21 21 21 21 22 23 23 22 23 23 23 23 22 22 22 22 22 21 18 15 17 21 24 24 22 18 14 12 8 8 11 14 18 17 15 16 18 17 16 17 20 23 26 29 31 33 37 40 41 42 42 42 41 41 41 41 41 40 39 37
9 8 9 10 11 11 12 12 12 13 15 17 18 19 20 20 21 22 23 23 23 23 24 24 24 23 22 22 22 21 21 20 19 16 15 17 21 22 20 16 13 13 11 9 10 13 17 19 18 17 18 17 16 17 20 21 22 25 27 28 31 35 37 39 40 39 39 39 40 40 40 40 38 37
8 7 7 9 10 10 11 12 13 14 16 17 18 19 19 20 20 20 21 21 22 22 23 23 23 23 22 22 22 21 21 20 20 18 15 13 16 18 17 12 9 9 9 10 10 10 14 17 18 20 21 19 17 19 22 22 22 24 26 27 30 33 35 36 37 37 36 37 38 38 38 38 37 37
7 6 6 8 9 10 11 12 12 14 15 16 17 18 18 19 19 19 19 20 21 21 22 23 23 23 23 22 22 21 21 21 21 20 17 13 12 13 14 12 9 7 6 7 8 8 11 13 14 19 24 23 19 19 21 22 23 24 26 27 29 32 34 34 35 36 37 37 37 37 37 37 37 37
7 5 5 7 8 9 10 11 12 13 14 15 15 16 17 17 18 18 19 19 20 21 21 22 23 23 23 23 22 22 22 22 21 20 19 16 11 11 12 12 11 9 8 7 6 5 7 10 11 14 19 20 20 19 19 20 21 22 24 26 27 29 31 33 34 34 36 37 37 38 37 37 37 37
7 4 5 6 7 8 9 10 10 11 12 13 14 15 16 17 17 17 18 18 19 20 21 21 22 22 23 23 23 22 21 21 20 19 18 17 14 11 11 11 12 11 9 8 8 6 4 6 7 8 12 16 17 18 19 20 20 21 22 25 27 28 29 31 32 34 35 36 36 38 38 38 38 38
7 4 5 6 6 7 8 9 9 10 11 12 13 14 15 16 16 17 18 19 19 20 21 21 21 22 22 22 23 23 22 21 20 19 18 17 15 12 9 9 10 11 10 10 10 9 7 5 4 5 9 14 16 15 16 18 20 21 22 24 26 27 28 29 30 32 34 35 36 38 38 38 38 38
7 5 5 5 5 6 8 8 8 9 10 12 12 14 15 15 16 18 18 18 19 19 20 21 21 21 21 21 21 22 22 21 20 19 17 16 15 13 11 9 8 9 11 11 10 10 9 6 3 6 9 12 14 14 15 17 18 20 21 23 24 25 25 27 28 29 31 34 37 38 38 38 37 37
8 6 5 5 5 6 7 8 8 8 10 11 12 13 15 15 16 17 17 17 18 18 19 20 21 21 21 21 21 21 22 21 21 20 19 18 17 15 14 12 10 8 8 9 8 8 8 6 3 5 10 12 12 12 14 16 17 17 17 19 22 23 23 24 26 27 29 32 34 35 35 35 35 35
8 7 6 5 5 5 6 7 8 8 9 11 12 13 14 15 15 16 16 16 17 18 18 19 20 20 20 21 21 21 21 21 22 22 21 20 19 17 16 14 12 10 7 6 5 5 4 4 3 4 8 12 14 13 13 15 17 17 16 16 18 21 23 23 24 26 28 29 30 31 31 32 32 32
9 8 7 6 6 5 6 7 8 8 9 10 11 12 14 14 14 15 15 16 16 17 18 18 18 19 19 20 20 20 20 20 20 21 21 21 20 19 17 14 11 9 7 5 3 4 4 3 3 6 7 10 14 14 12 13 16 17 18 18 18 20 22 22 22 25 27 28 28 30 30 30 31 31
9 9 8 7 6 6 5 7 8 8 8 10 11 12 13 14 14 14 14 15 16 17 17 18 18 18 19 19 19 20 20 20 19 19 19 19 19 19 18 15 12 9 8 6 4 4 4 4 5 6 6 8 11 11 9 10 13 15 16 17 18 20 22 23 22 23 25 28 29 31 31 31 31 31
10 9 9 8 7 6 6 7 8 8 8 9 10 11 12 13 14 14 14 15 16 16 17 17 18 18 18 18 19 20 19 19 19 19 19 18 18 18 18 18 16 15 13 11 9 7 5 3 2 4 5 6 8 8 7 7 10 13 15 16 16 17 20 22 22 22 23 26 28 30 31 32 32 32
11 10 10 9 8 7 7 7 8 8 8 9 10 11 12 13 14 15 15 15 15 16 16 17 17 18 18 18 18 19 19 18 19 19 19 19 18 18 18 18 17 17 16 15 13 10 8 5 2 1 3 4 7 8 7 6 8 10 12 15 17 17 18 20 21 21 22 24 25 26 28 30 31 32
11 11 11 10 9 9 8 7 8 9 8 9 10 11 12 13 14 14 15 15 15 15 16 16 17 17 18 17 17 17 17 18 19 19 18 18 18 18 17 17 15 15 14 14 13 12 10 8 6 3 2 3 5 7 8 8 8 8 9 11 14 16 17 19 20 21 22 23 24 25 26 27 29 30
Wind_Direction
317 319 321 322 323 324 324 325 324 323 320 313 306 304 309 314 316 317 313 311 318 324 323 323 323 323 320 317 313 309 301 291 286 283 282 283 279 272 264 256 250 242 237 232 229 227 225 224 224 223 222 220 218 219 220 221 223 224 226 227 228 228 226 223 220 218 217 213 213 211 198 197 207 208
317 318 320 322 323 324 325 325 324 323 319 311 304 303 308 312 313 315 314 311 318 323 321 323 326 325 324 323 319 315 306 293 284 280 278 277 276 274 268 260 253 246 239 234 230 228 226 224 224 223 222 220 218 218 219 220 222 224 225 226 228 229 228 227 224 221 220 216 212 214 210 196 199 205
316 318 321 323 324 323 324 325 324 322 317 311 304 302 307 310 310 314 313 311 317 323 322 324 329 329 327 327 322 315 308 297 285 279 276 273 271 271 269 264 257 250 243 236 231 228 226 225 224 223 222 221 219 218 218 219 221 223 224 224 227 229 229 229 227 223 221 220 215 216 218 202 194 199
316 319 322 324 323 322 324 325 323 320 316 311 305 302 305 308 309 312 314 313 315 323 327 328 332 332 329 325 321 316 311 304 293 283 278 274 270 269 267 265 261 254 247 239 234 230 227 226 224 223 223 221 219 218 218 218 220 222 222 222 225 228 229 230 229 225 221 221 220 217 220 210 195 196
316 319 322 323 322 321 324 324 320 318 317 312 306 303 304 306 310 311 315 317 316 321 329 331 332 333 328 322 320 318 316 312 304 293 285 278 273 269 266 264 262 257 251 243 237 232 228 226 224 223 223 222 220 218 217 217 219 221 221 221 223 225 228 229 230 227 222 220 222 219 219 215 199 198
316 319 322 322 321 321 323 323 320 319 319 315 308 304 304 306 310 312 316 319 317 321 330 333 333 332 327 322 322 321 316 313 309 302 294 285 277 271 266 263 260 257 253 247 240 235 229 226 224 223 222 222 220 218 216 216 217 219 220 220 221 224 227 229 229 228 222 218 220 220 217 216 204 198
316 319 321 321 320 321 323 322 321 320 321 317 309 305 305 306 310 314 317 319 318 322 329 334 335 334 329 325 325 322 316 312 309 306 301 293 282 274 267 262 259 256 253 249 243 238 232 227 224 223 222 222 220 218 216 215 216 217 218 219 220 222 225 227 229 228 224 218 218 218 215 214 208 198
316 319 320 320 320 321 322 322 322 322 321 318 311 306 305 306 310 315 317 318 319 322 328 336 339 335 330 327 325 321 316 311 308 307 306 301 291 279 269 263 260 257 254 250 244 239 235 229 225 223 223 222 221 218 216 215 215 216 217 218 218 220 223 225 227 229 225 219 217 218 215 213 210 201
316 318 319 320 320 319 321 323 323 323 322 319 311 306 306 307 310 314 316 318 320 323 330 337 339 335 330 326 323 318 314 310 307 305 304 303 298 288 275 265 260 258 256 253 247 241 236 231 226 223 222 222 220 218 215 214 214 214 215 216 217 218 221 223 226 229 227 221 217 217 216 212 208 203
315 318 319 320 318 317 320 324 324 323 322 318 311 306 305 306 308 312 316 319 322 326 333 336 335 334 330 324 320 317 313 311 309 307 304 302 298 293 285 272 263 258 256 254 250 243 236 232 228 224 222 221 220 218 216 214 214 213 213 214 214 216 218 221 224 228 228 223 218 217 216 211 206 202
315 317 319 318 317 317 321 326 324 323 323 318 311 304 302 304 309 314 318 320 324 328 333 335 333 332 329 322 318 317 315 313 312 310 308 306 301 296 288 278 267 260 256 254 252 247 239 232 228 224 222 221 220 218 216 214 213 213 213 213 213 214 216 219 223 227 228 224 219 217 216 211 207 202
315 316 318 317 316 318 322 326 324 323 323 319 311 304 305 308 314 318 318 320 326 330 332 333 332 329 326 321 318 318 317 315 315 313 310 309 306 300 291 280 270 261 256 253 250 248 242 234 228 225 221 219 219 218 215 213 213 213 213 212 212 213 214 218 221 225 227 225 220 217 217 214 210 204
314 315 317 317 316 318 322 325 325 324 324 321 314 308 309 313 317 318 317 321 327 329 329 330 329 327 325 322 319 319 318 316 318 318 313 310 307 299 288 278 269 263 257 251 247 245 243 235 228 224 221 218 218 217 215 212 211 212 212 211 211 212 213 216 219 222 225 226 222 218 217 216 213 207
314 315 317 317 316 318 322 325 325 325 324 322 314 308 309 313 317 317 317 321 325 326 327 329 328 325 325 324 322 321 320 318 319 318 315 312 307 298 287 275 265 260 259 254 246 241 241 237 229 223 220 217 216 216 214 211 210 211 211 210 210 211 212 214 216 218 222 226 224 220 218 216 214 209
314 315 317 317 317 319 323 325 325 324 324 322 314 306 305 310 314 316 317 319 321 323 325 327 327 324 324 326 328 326 323 321 319 317 316 315 308 299 290 279 266 258 257 257 250 240 237 237 230 222 218 216 215 215 214 211 209 209 210 209 208 210 211 213 215 216 219 224 225 223 220 218 214 208
313 315 316 316 318 320 323 325 325 324 324 323 315 304 301 307 312 314 315 315 317 322 325 325 325 323 322 327 334 333 329 327 323 320 322 319 310 300 293 286 275 262 257 256 253 244 236 235 231 222 217 215 213 213 212 210 208 208 209 208 207 209 210 211 215 215 216 222 225 224 223 220 215 209
312 314 317 317 319 321 323 323 324 324 324 324 318 304 299 305 309 310 310 311 315 322 322 321 323 322 321 330 340 339 334 332 328 327 328 324 312 303 299 294 285 272 262 257 256 248 237 235 231 222 215 214 212 211 211 210 207 206 207 207 206 207 208 209 213 215 214 219 223 224 223 221 216 212
312 315 317 318 320 322 323 322 323 323 325 325 320 307 297 300 303 304 306 311 315 318 317 317 321 322 325 334 342 342 338 336 334 334 335 330 318 309 308 304 294 280 267 259 257 250 237 234 231 221 214 212 210 209 209 209 207 205 205 207 205 205 207 207 210 214 214 217 220 222 223 222 218 215
314 316 318 319 322 323 323 322 323 324 324 325 324 313 297 296 301 304 309 314 315 314 315 319 321 323 330 339 343 343 340 338 337 337 336 331 321 314 311 303 292 282 268 256 254 249 235 231 228 219 213 211 209 207 207 207 207 204 204 206 206 205 205 205 208 212 214 216 219 221 223 223 220 217
313 316 317 319 322 324 323 323 324 324 324 325 326 321 304 297 304 310 313 316 316 316 319 321 320 324 334 342 343 340 337 336 338 338 336 330 321 318 314 299 288 283 270 254 248 242 227 223 223 216 211 210 206 205 206 205 205 204 203 204 205 205 205 204 206 210 213 215 217 220 222 223 223 221
312 313 316 319 322 324 324 324 325 325 325 326 327 325 315 305 309 313 314 314 315 316 317 317 318 326 338 342 340 337 336 337 339 340 340 332 320 318 317 308 295 287 273 253 243 235 218 213 216 212 208 207 204 202 203 203 204 204 202 203 204 204 205 204 205 208 212 214 216 219 221 223 224 225
310 312 314 319 323 324 326 327 327 326 326 326 326 327 326 321 316 314 312 310 308 308 310 315 323 334 341 341 338 337 338 341 343 344 343 335 326 322 321 318 305 289 277 257 243 236 216 207 210 207 204 203 201 199 201 201 202 203 202 202 204 204 204 204 204 207 210 212 215 218 220 223 225 226
308 311 314 319 324 327 328 329 330 329 328 328 328 331 333 329 322 317 313 308 304 300 303 314 330 341 343 341 338 338 341 343 346 347 341 336 339 342 337 329 313 293 284 266 251 243 218 206 205 202 199 198 196 196 198 199 200 201 201 202 203 203 204 204 203 206 208 210 213 216 218 220 224 226
307 310 316 322 326 329 331 333 335 334 332 331 333 335 334 329 323 319 315 312 312 312 314 324 338 344 345 344 340 339 342 344 348 349 344 339 346 354 351 345 336 315 303 278 255 233 209 206 204 196 191 192 191 192 195 197 198 199 200 202 202 202 204 204 203 204 207 208 210 213 215 217 220 224
306 311 317 324 328 330 333 336 340 339 337 337 337 336 332 327 324 323 321 318 318 320 325 334 342 346 347 347 343 339 341 344 348 352 352 347 347 346 339 340 343 348 355 346 199 181 193 201 198 188 184 185 186 187 190 194 196 197 199 201 202 203 203 204 203 203 205 207 209 210 212 214 217 222
305 312 319 325 330 333 336 340 344 345 344 342 339 336 332 329 328 327 328 327 324 327 334 339 343 347 348 348 345 342 342 344 348 355 360 358 356 355 346 336 341 1 48 80 97 124 173 187 184 179 178 177 178 182 186 190 194 196 199 201 202 203 203 203 204 203 204 206 208 210 211 213 216 219
304 311 320 327 332 336 339 343 349 352 351 347 343 342 341 340 338 335 336 338 335 336 340 341 343 347 349 348 348 348 348 348 350 358 7 8 7 8 5 359 2 5 61 82 94 115 138 152 160 167 170 169 168 173 182 188 191 193 197 200 202 203 203 203 204 204 204 205 207 210 211 212 214 216
302 312 322 330 335 338 341 347 354 356 355 353 354 357 359 358 356 353 351 349 344 340 341 342 344 347 348 348 351 355 357 355 352 357 6 11 13 15 14 18 33 51 82 104 122 133 133 130 136 151 162 164 163 168 180 186 189 192 195 198 201 203 203 203 204 204 204 204 205 208 211 212 213 215
302 313 324 332 337 340 343 350 355 355 355 358 3 9 13 12 11 8 4 359 353 347 345 346 348 349 349 351 356 359 1 0 355 355 2 7 11 14 18 26 44 67 99 122 134 138 133 131 135 142 153 159 159 167 180 185 187 191 195 197 200 202 203 203 204 205 204 204 205 207 210 212 214 216
301 312 325 333 337 341 345 350 351 349 353 3 9 15 19 19 16 14 11 8 4 358 355 353 352 352 353 356 0 1 1 1 359 357 0 4 7 9 15 28 44 58 89 123 133 127 126 131 136 141 148 152 154 167 182 186 187 189 193 197 199 201 202 203 204 205 205 205 205 205 207 211 213 214
296 311 325 333 336 341 345 345 343 347 358 8 12 16 19 18 16 14 14 13 11 8 6 2 359 358 358 359 1 3 3 3 3 3 4 7 8 7 9 21 31 32 53 111 135 135 133 132 134 147 158 159 158 168 178 183 187 188 189 194 197 198 201 204 204 205 205 205 205 205 205 208 211 212
292 309 323 330 334 337 341 340 341 352 5 11 13 15 15 13 12 13 13 13 13 13 13 11 8 6 4 2 1 3 5 7 8 10 10 12 14 11 9 18 24 15 24 75 120 145 150 145 141 149 160 162 163 169 171 174 185 187 185 189 194 196 199 203 204 204 204 203 203 204 205 207 209 211
284 305 320 326 329 333 336 340 345 359 10 13 12 13 12 10 10 10 10 9 11 14 16 15 14 12 11 9 7 5 5 8 12 16 16 18 22 21 18 25 33 16 17 50 83 126 157 162 157 154 155 160 166 171 171 173 181 184 183 187 192 194 196 201 203 201 201 202 203 204 205 207 208 211
275 300 317 320 324 331 336 342 350 3 12 13 11 10 10 9 9 9 8 7 8 10 14 15 15 15 15 15 14 11 9 9 11 16 19 21 28 30 29 36 50 50 40 45 61 99 134 149 159 162 163 166 171 173 174 177 180 183 185 189 193 194 194 198 200 199 200 201 203 204 205 207 208 209
268 290 310 312 320 330 336 343 353 5 12 13 9 8 8 8 8 8 7 8 9 9 11 13 13 14 16 17 17 17 17 15 13 14 18 20 25 34 38 44 58 69 73 64 54 76 114 122 133 153 163 167 172 176 179 180 181 182 185 191 195 195 195 196 197 198 199 200 201 203 204 206 208 209
262 277 295 303 316 328 334 343 354 3 10 11 8 8 8 8 9 9 8 10 11 9 9 11 12 12 14 17 18 18 20 21 19 17 18 20 22 30 38 44 51 61 73 80 74 73 105 127 129 142 156 162 169 179 184 184 183 183 186 192 196 196 196 197 198 198 200 202 203 203 204 205 207 209
254 262 280 293 311 324 330 339 351 359 7 10 7 7 9 8 9 11 11 11 12 10 9 11 11 11 13 16 17 18 18 20 22 23 23 24 25 28 38 48 54 59 65 72 73 74 86 117 145 165 169 166 167 178 187 189 187 187 189 194 200 201 199 198 199 201 203 204 205 205 206 206 208 209
248 250 266 282 300 317 323 333 345 353 1 6 5 6 8 9 11 14 14 12 12 11 10 10 9 10 12 14 16 18 18 18 20 24 27 28 29 31 38 49 58 63 65 63 60 60 65 76 126 175 184 179 173 179 191 193 193 193 194 195 199 204 204 203 202 204 206 207 207 207 207 208 210 211
242 242 254 269 285 306 317 325 337 348 355 360 3 5 6 7 11 14 14 12 12 13 12 11 9 9 10 12 13 16 18 18 18 21 26 29 31 31 33 38 43 52 66 70 65 60 55 49 79 158 182 189 186 186 192 193 194 199 203 200 197 197 201 205 208 210 211 211 209 209 210 211 212 213
237 238 247 259 273 295 310 317 328 343 351 355 359 2 3 4 8 11 11 11 12 14 13 12 11 9 9 11 12 13 16 17 17 19 22 24 28 30 31 31 32 34 49 71 85 88 74 47 60 125 166 183 187 190 196 197 196 200 206 209 203 196 195 201 207 212 216 215 211 211 212 214 215 216
233 234 242 250 264 284 301 311 320 334 345 350 355 359 359 360 3 6 8 8 10 12 12 12 12 10 10 11 11 11 14 16 17 19 21 21 23 26 28 30 31 31 35 51 88 122 129 116 105 112 134 161 171 175 185 195 200 202 204 208 208 203 201 203 205 208 214 217 215 214 215 216 217 219
230 232 237 245 258 273 289 303 312 324 336 342 349 354 354 355 358 0 3 5 7 8 10 10 10 11 11 11 11 11 12 13 14 17 20 21 22 22 23 25 30 35 38 44 60 94 115 126 127 119 120 139 149 148 155 178 190 196 201 207 208 204 206 210 211 208 211 215 217 218 218 218 219 220
229 230 234 242 253 262 276 293 302 313 326 334 341 347 349 351 354 356 359 3 4 5 5 6 7 8 9 9 10 10 10 10 11 14 16 17 20 21 21 22 24 25 26 27 31 40 51 64 107 128 132 140 144 140 140 158 172 180 191 200 204 204 207 212 216 215 214 215 217 219 220 220 221 221
227 229 232 240 249 256 267 283 293 304 318 327 332 339 344 346 349 352 355 359 0 1 2 3 3 4 6 7 8 7 7 7 10 12 13 13 14 16 18 21 22 22 20 17 15 15 14 14 23 142 166 165 164 164 163 160 160 167 179 189 195 201 207 211 214 217 219 219 219 220 220 221 222 222
225 226 231 237 244 251 261 275 287 297 311 321 326 332 338 341 344 348 350 353 355 357 359 360 360 0 1 3 4 4 4 5 7 8 9 10 10 11 12 13 15 18 18 14 9 5 1 359 357 342 268 216 197 191 190 187 180 174 176 182 186 191 198 202 205 210 215 218 221 223 223 224 224 224